Weather History for Owensboro, KY

Change the Weather History Date:

Wednesday, July 2, 2014

  Actual Average Record
Temperature  
Mean Temperature 74 °F -  
Max Temperature 84 °F 88 °F 104 °F (2012)
Min Temperature 65 °F 66 °F 32 °F (2002)
Cooling Degree Days 10    
Growing Degree Days 24 (Base 50)    
Moisture  
Dew Point 67 °F    
Average Humidity 82    
Maximum Humidity 100    
Minimum Humidity 53    
Precipitation  
Precipitation 0.00 in - - ()
Sea Level Pressure  
Sea Level Pressure 29.96 in    
Wind  
Wind Speed 7 mph (WSW)    
Max Wind Speed 15 mph    
Max Gust Speed -    
Visibility 7 miles    
Events      
Averages and records for this station are not official NWS values.
T = Trace of Precipitation, MM = Missing Value Source: NWS Daily Summary

Daily Weather History Graph

Daily Weather History Graph

Search for Another Location

Airport:

Trip Planner

Search our weather history database for the weather conditions in past years. The results will help you decide how hot, cold, wet, or windy it might be!

Date:

Astronomy

Jul. 02, 2014 Rise Set
Actual Time 5:31 AM CDT 8:14 PM CDT
Civil Twilight 4:59 AM CDT 8:45 PM CDT
Nautical Twilight 4:21 AM CDT 9:24 PM CDT
Astronomical Twilight 3:37 AM CDT 10:08 PM CDT
Moon 10:28 AM CDT 11:13 PM CDT
Length of Visible Light 15h 45m
Length of Day
14h 43m
Waxing Crescent, 24% of the Moon is Illuminated
Jul 2
Waxing Crescent
Jul 5
First Quarter
Jul 12
Full
Jul 18
Last Quarter
Jul 26
New

Hourly Weather History & Observations

Time (CDT) Temp. Heat Index Dew Point Humidity Pressure Visibility Wind Dir Wind Speed Gust Speed Precip Events Conditions
12:04 AM 69.8 °F - 69.8 °F 100% 29.92 in 7.0 mi WSW 5.8 mph - N/A   Mostly Cloudy
12:56 AM 70.0 °F - 70.0 °F 100% 29.92 in 8.0 mi SW 5.8 mph - N/A   Mostly Cloudy
1:10 AM 69.8 °F - 69.8 °F 100% 29.93 in 8.0 mi WSW 4.6 mph - N/A   Scattered Clouds
1:56 AM 68.9 °F - 68.9 °F 100% 29.92 in 10.0 mi SW 4.6 mph - N/A   Clear
2:36 AM 68.0 °F - 68.0 °F 100% 29.93 in 10.0 mi SW 4.6 mph - N/A   Partly Cloudy
2:56 AM 68.0 °F - 68.0 °F 100% 29.91 in 9.0 mi West 4.6 mph - N/A   Partly Cloudy
3:15 AM 69.8 °F - 69.8 °F 100% 29.93 in 8.0 mi West 6.9 mph - N/A   Mostly Cloudy
3:56 AM 68.9 °F - 68.9 °F 100% 29.91 in 2.5 mi West 4.6 mph - N/A   Overcast
4:11 AM 68.0 °F - 68.0 °F 100% 29.93 in 3.0 mi West 5.8 mph - N/A   Overcast
4:56 AM 68.0 °F - 68.0 °F 100% 29.93 in 5.0 mi West 6.9 mph - N/A   Overcast
5:37 AM 68.0 °F - 68.0 °F 100% 29.94 in 2.0 mi West 5.8 mph - N/A   Overcast
5:56 AM 68.0 °F - 68.0 °F 100% 29.94 in 1.8 mi SW 9.2 mph - N/A   Overcast
6:07 AM 69.8 °F - 69.8 °F 100% 29.95 in 2.0 mi WSW 4.6 mph - N/A   Overcast
6:56 AM 68.9 °F - 68.9 °F 100% 29.94 in 2.5 mi SSW 4.6 mph - N/A   Scattered Clouds
7:56 AM 70.9 °F - 70.9 °F 100% 29.96 in 2.5 mi South 9.2 mph - N/A   Mostly Cloudy
8:08 AM 71.6 °F - 71.6 °F 100% 29.97 in 3.0 mi South 8.1 mph - N/A   Mostly Cloudy
8:56 AM 73.9 °F - 70.9 °F 90% 29.96 in 7.0 mi South 5.8 mph - N/A   Mostly Cloudy
9:56 AM 77.9 °F - 70.9 °F 79% 29.96 in 8.0 mi SW 8.1 mph - N/A   Scattered Clouds
10:56 AM 79.9 °F - 70.9 °F 74% 29.97 in 8.0 mi SW 8.1 mph - N/A   Partly Cloudy
11:56 AM 83.8 °F 88.1 °F 70.0 °F 63% 29.97 in 10.0 mi SSW 6.9 mph - N/A   Clear
12:56 PM 83.8 °F 88.1 °F 70.0 °F 63% 29.96 in 10.0 mi WSW 11.5 mph - N/A   Mostly Cloudy
1:56 PM 84.9 °F 89.4 °F 70.0 °F 61% 29.97 in 10.0 mi West 12.7 mph - N/A   Mostly Cloudy
2:56 PM 83.8 °F 87.5 °F 68.9 °F 61% 29.97 in 10.0 mi WNW 11.5 mph - N/A   Partly Cloudy
3:56 PM 84.9 °F 87.6 °F 66.9 °F 55% 29.96 in 10.0 mi West 10.4 mph - N/A   Partly Cloudy
4:56 PM 81.9 °F 83.1 °F 63.0 °F 53% 29.97 in 10.0 mi WNW 11.5 mph - N/A   Scattered Clouds
5:56 PM 81.0 °F 82.2 °F 63.0 °F 54% 29.97 in 10.0 mi NW 15.0 mph - N/A   Clear
6:56 PM 77.9 °F - 61.0 °F 56% 29.98 in 10.0 mi WNW 11.5 mph - N/A   Clear
7:56 PM 74.8 °F - 57.9 °F 55% 29.98 in 10.0 mi NW 9.2 mph - N/A   Clear
8:56 PM 72.0 °F - 57.9 °F 61% 30.00 in 10.0 mi NNW 5.8 mph - N/A   Clear
9:56 PM 70.0 °F - 57.9 °F 65% 30.03 in 10.0 mi NNW 3.5 mph - N/A   Clear
10:56 PM 65.8 °F - 59.0 °F 79% 30.05 in 10.0 mi NW 3.5 mph - N/A   Clear
11:56 PM 66.9 °F - 56.8 °F 70% 30.05 in 10.0 mi NNW 5.8 mph - N/A   Clear